Date String (YYYY-MM-DD hh:mm:ss) UTC,Instrument flags,Ambient pressure (hPa),Sample flow (lpm),Bypass flow (lpm),Sample temperature (°C),Ambient temperature (°C),ASC tube jacket temperature (°C),LED temperature (°C),Box temperature (°C),Sample RH (%),Span deviation,Mass concentration (μg/m³),Mass concentration (μg/m³),Mass concentration (μg/m³)
DateTimeUTC,F1_M11,P_M11,Q1_M11,Q2_M11,T1_M11,T2_M11,T3_M11,T4_M11,T5_M11,U1_M11,ZSPAN_M11,X0_M11,X2_M11,X1_M11
2022-01-03 21:00:00,,0823.4,4.99,0.00,25.5,24.7,00.0,34.6,27.2,08.9,0000.0,0013.26,0009.78,0009.44
2022-01-03 21:01:00,,0823.4,5.00,0.00,25.5,24.8,00.0,34.6,27.2,09.0,0000.0,0013.24,0009.75,0009.39
2022-01-03 21:02:00,,0823.4,5.02,0.00,25.5,24.8,00.0,34.6,27.2,09.1,0000.0,0013.20,0009.69,0009.34
2022-01-03 21:03:00,,0823.4,4.99,0.00,25.5,24.8,00.0,34.5,27.1,09.0,0000.0,0013.13,0009.64,0009.30
2022-01-03 21:04:00,,0823.4,5.01,0.00,25.5,24.8,00.0,34.5,27.1,09.1,0000.0,0012.70,0009.61,0009.27
2022-01-03 21:05:00,,0823.4,4.98,0.00,25.5,24.8,00.0,34.5,27.1,09.1,0000.0,0012.58,0009.56,0009.26
2022-01-03 21:06:00,,0823.4,5.01,0.00,25.5,24.8,00.0,34.5,27.1,08.9,0000.0,0012.46,0009.47,0009.21
2022-01-03 21:07:00,,0823.4,4.99,0.00,25.4,24.8,00.0,34.5,27.1,09.1,0000.0,0012.38,0009.40,0009.14
2022-01-03 21:08:00,,0823.4,5.00,0.00,25.4,24.8,00.0,34.5,27.1,09.2,0000.0,0012.16,0009.40,0009.16
2022-01-03 21:09:00,,0823.3,5.00,0.00,25.4,24.8,00.0,34.5,27.1,09.2,0000.0,0011.91,0009.44,0009.20
2022-01-03 21:10:00,,0823.3,4.99,0.00,25.4,24.7,00.0,34.5,27.1,09.1,0000.0,0011.99,0009.49,0009.25
2022-01-03 21:11:00,,0823.2,5.01,0.00,25.4,24.7,00.0,34.5,27.1,09.3,0000.0,0011.71,0009.51,0009.30
2022-01-03 21:12:00,,0823.4,5.00,0.00,25.4,24.7,00.0,34.4,27.1,08.9,0000.0,0011.69,0009.52,0009.32
2022-01-03 21:13:00,,0823.3,5.00,0.00,25.4,24.7,00.0,34.4,27.1,08.8,0000.0,0011.70,0009.50,0009.29
2022-01-03 21:14:00,,0823.3,5.01,0.00,25.4,24.7,00.0,34.4,27.1,09.1,0000.0,0011.89,0009.54,0009.32
2022-01-03 21:15:00,,0823.4,5.00,0.00,25.4,24.7,00.0,34.4,27.1,09.0,0000.0,0012.61,0009.59,0009.37
2022-01-03 21:16:00,,0823.5,5.00,0.00,25.4,24.7,00.0,34.4,27.0,09.1,0000.0,0012.71,0009.65,0009.44
2022-01-03 21:17:00,,0823.6,4.99,0.00,25.4,24.7,00.0,34.4,27.1,09.4,0000.0,0012.89,0009.78,0009.55
2022-01-03 21:18:00,,0823.6,5.01,0.00,25.4,24.7,00.0,34.4,27.1,09.8,0000.0,0013.08,0009.90,0009.67
2022-01-03 21:19:00,,0823.6,5.00,0.00,25.4,24.7,00.0,34.4,27.1,09.9,0000.0,0013.30,0010.00,0009.75
2022-01-03 21:20:00,,0823.4,4.99,0.00,25.3,24.7,00.0,34.4,27.1,09.9,0000.0,0013.68,0010.03,0009.76
2022-01-03 21:21:00,,0823.3,5.00,0.00,25.4,24.7,00.0,34.4,27.1,10.0,0000.0,0013.76,0010.08,0009.78
2022-01-03 21:22:00,,0823.4,5.00,0.00,25.4,24.7,00.0,34.4,27.1,10.1,0000.0,0013.91,0010.17,0009.83
2022-01-03 21:23:00,,0823.4,5.00,0.00,25.4,24.7,00.0,34.4,27.1,09.9,0000.0,0014.07,0010.26,0009.90
2022-01-03 21:24:00,,0823.6,5.01,0.00,25.4,24.7,00.0,34.4,27.2,09.6,0000.0,0014.19,0010.39,0010.04
2022-01-03 21:25:00,,0823.6,4.99,0.00,25.4,24.8,00.0,34.4,27.2,09.9,0000.0,0014.22,0010.45,0010.10
2022-01-03 21:26:00,,0823.6,5.00,0.00,25.4,24.8,00.0,34.4,27.2,09.5,0000.0,0013.54,0010.49,0010.15
2022-01-03 21:27:00,,0823.5,5.01,0.00,25.4,24.8,00.0,34.4,27.2,09.4,0000.0,0013.52,0010.51,0010.17
2022-01-03 21:28:00,,0823.6,5.00,0.00,25.5,24.8,00.0,34.4,27.2,09.4,0000.0,0013.56,0010.52,0010.17
2022-01-03 21:29:00,,0823.5,4.99,0.00,25.5,24.8,00.0,34.4,27.2,09.2,0000.0,0013.49,0010.50,0010.15
2022-01-03 21:30:00,,0823.4,5.01,0.00,25.5,24.8,00.0,34.4,27.2,08.5,0000.0,0013.31,0010.37,0010.03
2022-01-03 21:31:00,,0823.4,5.01,0.00,25.5,24.9,00.0,34.4,27.3,08.9,0000.0,0012.82,0010.26,0009.97
2022-01-03 21:32:00,,0823.3,5.00,0.00,25.5,24.9,00.0,34.4,27.3,09.0,0000.0,0012.72,0010.21,0009.94
2022-01-03 21:33:00,,0823.3,5.00,0.00,25.5,24.9,00.0,34.4,27.3,08.2,0000.0,0012.52,0010.02,0009.79
2022-01-03 21:34:00,,0823.3,4.99,0.00,25.5,24.9,00.0,34.4,27.3,07.3,0000.0,0012.10,0009.67,0009.45
2022-01-03 21:35:00,,0823.3,4.99,0.00,25.5,24.9,00.0,34.4,27.4,06.9,0000.0,0011.67,0009.21,0009.01
2022-01-03 21:36:00,,0823.4,5.01,0.00,25.6,25.0,00.0,34.4,27.4,07.2,0000.0,0011.24,0008.82,0008.64
2022-01-03 21:37:00,,0823.4,5.01,0.00,25.6,25.0,00.0,34.4,27.4,08.5,0000.0,0011.00,0008.58,0008.40
2022-01-03 21:38:00,,0823.3,4.99,0.00,25.6,25.0,00.0,34.4,27.4,07.1,0000.0,0010.84,0008.32,0008.12
2022-01-03 21:39:00,,0823.2,5.01,0.00,25.6,25.0,00.0,34.5,27.4,06.1,0000.0,0010.23,0007.75,0007.57
2022-01-03 21:40:00,,0823.2,5.00,0.00,25.6,25.0,00.0,34.5,27.4,06.0,0000.0,0009.63,0007.16,0006.97
2022-01-03 21:41:00,,0823.2,4.98,0.00,25.6,25.0,00.0,34.5,27.4,05.9,0000.0,0009.07,0006.62,0006.42
2022-01-03 21:42:00,,0823.2,5.01,0.00,25.6,25.0,00.0,34.5,27.4,05.7,0000.0,0008.58,0006.11,0005.92
2022-01-03 21:43:00,,0823.2,5.00,0.00,25.7,25.1,00.0,34.5,27.5,05.5,0000.0,0008.02,0005.50,0005.32
2022-01-03 21:44:00,,0823.2,5.01,0.00,25.7,25.1,00.0,34.5,27.5,05.7,0000.0,0007.47,0004.97,0004.80
2022-01-03 21:45:00,,0823.2,4.99,0.00,25.7,25.1,00.0,34.5,27.5,06.4,0000.0,0007.09,0004.71,0004.53
2022-01-03 21:46:00,,0823.2,5.01,0.00,25.7,25.1,00.0,34.5,27.5,07.1,0000.0,0007.54,0004.74,0004.55
2022-01-03 21:47:00,,0823.2,4.98,0.00,25.7,25.1,00.0,34.5,27.5,06.1,0000.0,0007.62,0004.65,0004.44
2022-01-03 21:48:00,,0823.2,5.00,0.00,25.7,25.1,00.0,34.6,27.5,06.0,0000.0,0007.27,0004.28,0004.07
2022-01-03 21:49:00,,0823.2,5.01,0.00,25.7,25.1,00.0,34.6,27.5,06.1,0000.0,0006.54,0003.94,0003.75
2022-01-03 21:50:00,,0823.1,4.99,0.00,25.7,25.1,00.0,34.6,27.5,07.1,0000.0,0006.67,0004.00,0003.79
2022-01-03 21:51:00,,0823.1,5.00,0.00,25.7,25.1,00.0,34.6,27.5,07.0,0000.0,0006.89,0004.11,0003.91
2022-01-03 21:52:00,,0823.2,5.00,0.00,25.7,25.1,00.0,34.6,27.5,07.7,0000.0,0007.27,0004.29,0004.08
2022-01-03 21:53:00,,0823.2,5.00,0.00,25.7,25.1,00.0,34.6,27.4,08.6,0000.0,0007.70,0004.65,0004.44
2022-01-03 21:54:00,,0823.2,4.99,0.00,25.7,25.1,00.0,34.6,27.4,08.6,0000.0,0008.31,0005.13,0004.92
2022-01-03 21:55:00,,0823.0,5.00,0.00,25.7,25.0,00.0,34.6,27.4,08.7,0000.0,0008.71,0005.60,0005.39
2022-01-03 21:56:00,,0823.0,5.02,0.00,25.7,25.0,00.0,34.6,27.4,08.5,0000.0,0009.07,0005.98,0005.78
2022-01-03 21:57:00,,0823.1,4.99,0.00,25.7,25.0,00.0,34.6,27.5,08.5,0000.0,0008.94,0006.17,0005.98
2022-01-03 21:58:00,,0823.0,5.00,0.00,25.7,25.0,00.0,34.6,27.5,08.7,0000.0,0009.42,0006.55,0006.38
2022-01-03 21:59:00,,0822.9,4.99,0.00,25.7,25.0,00.0,34.6,27.5,08.1,0000.0,0010.35,0006.99,0006.79
